COSMOS 1081

Satellite information

Favourite Embed

Satellite Type and Status

PAYLOADIN ORBIT

Key statistics

Satellite COSMOS 1081 at a glance.

Uptime

16978

Days in orbit

Revolutions

≈ 12.6

Per day

Orbit

LEO

Low Earth Orbit

Inclination

74.0

Latest

Satellite identification and parameters

Extended collection of information and parameters for COSMOS 1081.

Object identification

Identified? True

Debris? False

Object name: COSMOS 1081

International designator: 1979-024A

Object number (NORAD): 11296

Object ID (CCSDS): 11296

Country: COMMONWEALTH OF INDEPENDENT STATES (CIS)

Current information (Y/N): Y

RCS size: MEDIUM

Orbital parameters

Period: 114.532 minutes

Inclination: 74.0332 deg

SMA: 7812.299 km

Apoapsis: 1464.564 km

Periapsis: 1403.763 km

RAAN: 47.5782 deg

Eccentricy: 0.00389137

Argument of periapsis: 140.9687 deg

Mean anomaly: 337.3315 deg

Mean motion: 12.57287236 rev/day

Mean motion (dot): -0.00000011 rev/day2

B* drag term: 0.000029221962 1/REarth

Two-line elements (TLE)

Creation date: Sept. 6, 2025, 2:09 a.m.

Reference frame: TEME

Reference center: EARTH

Epoch: Sept. 5, 2025, 9:53 p.m. UTC

TLE line 0: 0 COSMOS 1081

TLE line 1: 1 11296U 79024A 25248.91212323 -.00000011 00000-0 29222-4 0 9999

TLE line 2: 2 11296 74.0332 47.5782 0038914 140.9687 337.3315 12.57287236133198

Live tracking on map

Real-time ground track for satellite COSMOS 1081.

In-orbit conjunctions

There are no conjunctions computed for COSMOS 1081, at the moment. Check back to stay up to date, as we update our databases every day.

Go to all conjunctions

Associated space launch

Military communications satellites

COSMOS 1081 was lifted into orbit during the mission ‘Kosmos-3M | Strela-1M 169-176’, on board a Kosmos-3M space rocket.

The launch took place on March 15, 1979, 2:58 a.m. from 132/2.

For more information about the launch, click the button.

Launch to space Kosmos-3M | Strela-1M 169-176
Kosmos-3M | Strela-1M 169-176

Agency: N/A

Status: Launch Successful

Launch date: March 15, 1979, 2:58 a.m. UTC

Rocket: Kosmos-3M

Launch pad: 132/2

Location: Plesetsk Cosmodrome, Russian Federation

...

Latest news about this satellite

There are no fresh news available about this satellite. Check back as we update our databases every day.


Newsletter sign-up

Weekly statistics, charts and insights to help you stay on top of the space industry.